| DS18B20 | SHTC3 | PZEM-004T | WiFi | ||||||||
|---|---|---|---|---|---|---|---|---|---|---|---|
| ID | Date d/m/Y & Time | data1 สูง | data2 ต่ำ | data3 นอก | temp pcb | hum pcb | Volt | Amp | Watt | rssi | Time |
| 16588 | 27/08/2026 22:34:45 | 31.5  | 31.6  | 29.2  | 32.4  | 65.6  | 229.3  | 0.04  | 4.5  | -61  | 22:34 |
| 16587 | 27/08/2026 22:30:02 | 31.6  | 31.6  | 29.3  | 32.6  | 65.7  | 230.2  | 0.04  | 4.5  | -61  | 22:30 |
| 16586 | 27/08/2026 22:25:18 | 31.6  | 31.6  | 29.2  | 32.5  | 65.5  | 229.0  | 0.04  | 4.5  | -61  | 22:25 |
| 16585 | 27/08/2026 22:20:35 | 31.6  | 31.6  | 29.0  | 32.6  | 65.6  | 228.4  | 0.04  | 4.5  | -61  | 22:20 |
| 16584 | 27/08/2026 22:15:52 | 31.6  | 31.7  | 29.2  | 32.6  | 65.5  | 228.6  | 0.04  | 4.5  | -61  | 22:15 |
| 16583 | 27/08/2026 22:11:09 | 31.6  | 31.7  | 29.2  | 32.7  | 65.5  | 227.3  | 0.04  | 4.5  | -61  | 22:11 |
| 16582 | 27/08/2026 22:06:25 | 31.7  | 31.8  | 29.5  | 32.6  | 65.3  | 230.6  | 0.04  | 4.5  | -61  | 22:06 |
| 16581 | 27/08/2026 22:01:44 | 31.7  | 31.8  | 29.5  | 32.8  | 65.5  | 229.5  | 0.04  | 4.5  | -61  | 22:01 |
| 16580 | 27/08/2026 21:56:55 | 31.8  | 31.8  | 29.5  | 32.8  | 65.4  | 230.9  | 0.04  | 4.5  | -59  | 21:56 |
| 16579 | 27/08/2026 21:52:12 | 31.8  | 31.8  | 29.5  | 32.7  | 65.2  | 231.1  | 0.04  | 4.5  | -59  | 21:52 |
| 16578 | 27/08/2026 21:47:28 | 31.8  | 31.9  | 29.5  | 32.8  | 65.3  | 229.4  | 0.04  | 4.5  | -59  | 21:47 |
| 16577 | 27/08/2026 21:42:45 | 31.9  | 31.9  | 29.7  | 32.9  | 65.2  | 231.5  | 0.04  | 4.5  | -60  | 21:42 |
| 16576 | 27/08/2026 21:38:02 | 31.9  | 31.9  | 29.5  | 32.9  | 65.2  | 231.4  | 0.04  | 4.5  | -55  | 21:38 |
| 16575 | 27/08/2026 21:33:19 | 31.9  | 31.9  | 29.3  | 33.0  | 65.2  | 232.6  | 0.04  | 4.5  | -55  | 21:33 |
| 16574 | 27/08/2026 21:28:36 | 31.9  | 32.0  | 29.2  | 33.2  | 65.0  | 231.2  | 0.04  | 4.5  | -54  | 21:28 |
| 16573 | 27/08/2026 21:23:53 | 31.9  | 32.0  | 29.3  | 33.1  | 64.9  | 229.4  | 0.04  | 4.5  | -55  | 21:23 |
| 16572 | 27/08/2026 21:19:10 | 32.0  | 32.1  | 29.2  | 33.1  | 64.8  | 231.1  | 0.04  | 4.5  | -59  | 21:19 |
| 16571 | 27/08/2026 21:14:29 | 32.0  | 32.1  | 29.3  | 33.2  | 64.9  | 229.2  | 0.04  | 4.5  | -84  | 21:14 |
| 16570 | 27/08/2026 21:05:39 | 32.1  | 32.1  | 29.4  | 33.1  | 65.0  | 230.8  | 0.04  | 4.5  | -82  | 21:05 |
| 16569 | 27/08/2026 21:00:56 | 32.1  | 32.2  | 29.4  | 33.2  | 65.0  | 228.8  | 0.04  | 4.5  | -84  | 21:00 |
| 16568 | 27/08/2026 20:55:59 | 32.1  | 32.2  | 29.5  | 33.2  | 65.0  | 229.1  | 0.04  | 4.5  | -84  | 20:55 |
| 16567 | 27/08/2026 20:51:14 | 32.1  | 32.2  | 29.5  | 33.1  | 65.0  | 228.2  | 0.04  | 4.5  | -84  | 20:51 |
| 16566 | 27/08/2026 20:46:30 | 32.2  | 32.2  | 29.6  | 33.3  | 64.8  | 230.4  | 0.04  | 4.5  | -84  | 20:46 |
| 16565 | 27/08/2026 20:41:48 | 32.2  | 32.3  | 29.8  | 33.3  | 64.9  | 227.8  | 0.04  | 4.5  | -83  | 20:41 |